www.pogodaiklimat.ru
ПОГОДА в Камдентоне
Время
и дата
03:35 06.02
03:55 06.02
04:15 06.02
04:35 06.02
04:55 06.02
05:15 06.02
05:35 06.02
05:55 06.02
06:15 06.02
06:35 06.02
06:55 06.02
07:15 06.02
07:35 06.02
07:55 06.02
08:15 06.02
08:35 06.02
08:55 06.02
09:15 06.02
09:35 06.02
09:55 06.02
10:15 06.02
10:35 06.02
10:55 06.02
11:15 06.02
11:35 06.02
11:55 06.02
12:15 06.02
12:35 06.02
12:55 06.02
13:15 06.02
13:35 06.02
13:55 06.02
14:15 06.02
14:35 06.02
14:55 06.02
15:15 06.02
15:35 06.02
15:55 06.02
16:15 06.02
16:35 06.02
16:55 06.02
17:15 06.02
17:35 06.02
17:55 06.02
18:15 06.02
18:35 06.02
18:55 06.02
19:15 06.02
Ветер
(напр.,м/с)
Видим. Явления Облачность Т
(С)
Тd
(С)
f
(%)
Тe
(С)
Тes
(С)
Комфортность P
(гПа)
Po
(гПа)
Тmin
(С)
Tmax
(С)
R
(мм)
R24
(мм)
S
(см)
Ю 4 16 км ясно +3.0 -3.0 65 -1 -1 981.0
ЮВ 3 16 км ясно +3.0 -3.0 65 -1 -1 980.6
Ю 4 16 км ясно +3.0 -3.0 65 -1 -1 980.6
Ю 6 16 км ясно +4.0 -2.0 65 -1 -1 980.3
Ю 4 16 км ясно +4.0 -2.0 65 0 0 980.3
Ю 4 16 км ясно +4.0 -2.0 65 0 0 980.3
Ю 4 16 км ясно +5.0 -2.0 61 +1 +1 980.0
ЮВ 4 16 км ясно +5.0 -1.0 65 +1 +1 979.7
ЮВ 3 16 км ясно +4.0 -2.0 65 +1 +1 979.7
ЮВ 3 16 км ясно +4.0 -1.0 70 +1 +1 979.7
ЮВ 3 16 км ясно +5.0 -1.0 65 +2 +2 979.3
ЮВ 3 16 км ясно +5.0 -1.0 65 +2 +2 979.3
ЮВ 3 16 км ясно +5.0 0.0 70 +2 +2 979.3
ЮВ 3 16 км ясно +5.0 0.0 70 +2 +2 979.0
ЮВ 5 16 км ясно +7.0 +1.0 66 +3 +4 979.0
ЮВ 6
{7}
16 км ясно +7.0 +2.0 70 +3 +3 978.7
ЮВ 6 16 км ясно +7.0 +2.0 70 +3 +3 978.4
ЮВ 6
{8}
16 км ясно +9.0 +3.0 66 +5 +6 978.4
ЮВ 8
{10}
16 км ясно +11.0 +5.0 66 +8 +8 978.0
ЮВ 7
{10}
16 км ясно +12.0 +5.0 62 +9 +10 977.7
ЮВ 6
{10}
16 км ясно +12.0 +6.0 67 +9 +11 977.7
ЮВ 7
{10}
16 км ясно +13.0 +6.0 62 +11 +12 977.4
Ю 9
{14}
16 км ясно +15.0 +7.0 59 +13 +13 977.4
Ю 10
{15}
16 км 5/5 780 м +16.0 +8.0 59 +14 +14 976.7
Ю 11
{14}
16 км 5/5 840 м +16.0 +8.0 59 +14 +14 976.4
Ю 11
{14}
16 км 5/5 900 м +16.0 +8.0 59 +14 +14 975.8
Ю 11
{16}
16 км 5/5 900 м +16.0 +8.0 59 +14 +14 975.1
ЮВ 11
{17}
16 км 5/5 900 м +17.0 +8.0 55 +15 +15 974.5
Ю 11
{14}
16 км 5/5 900 м +17.0 +8.0 55 +15 +15 974.1
Ю 14
{19}
16 км 5/5 960 м +17.0 +7.0 52 +15 +15 973.1
Ю 13
{17}
16 км 5/5 1020 м +17.0 +7.0 52 +15 +15 973.1
Ю 13
{17}
16 км 5/5 1020 м +17.0 +7.0 52 +15 +15 972.8
Ю 12
{15}
16 км 5/5 1080 м +17.0 +7.0 52 +15 +15 972.2
Ю 13
{16}
16 км 5/5 1080 м +17.0 +7.0 52 +15 +15 971.8
Ю 10
{16}
16 км 5/5 1080 м +17.0 +8.0 55 +15 +16 971.8
Ю 9
{15}
16 км 5/5 1020 м +17.0 +8.0 55 +16 +16 971.5
Ю 10
{15}
16 км 5/5 1020 м +17.0 +8.0 55 +15 +16 971.2
Ю 10
{12}
16 км ясно +17.0 +8.0 55 +15 +16 970.9
Ю 10
{13}
16 км ясно +17.0 +8.0 55 +15 +16 970.5
Ю 8
{15}
16 км ясно +17.0 +8.0 55 +16 +16 970.5
Ю 7
{12}
16 км ясно +17.0 +8.0 55 +16 +16 971.2
Ю 8
{12}
16 км ясно +17.0 +8.0 55 +16 +16 971.2
Ю 7
{10}
16 км ясно +16.0 +8.0 59 +15 +15 971.8
Ю 6
{10}
16 км ясно +16.0 +8.0 59 +15 +15 971.8
Ю 9
{11}
16 км 5/5 1170 м +16.0 +8.0 59 +14 +14 971.8
Ю 9
{13}
16 км ясно +16.0 +8.0 59 +14 +14 972.2
Ю 7
{12}
16 км 5/5 1200 м +15.0 +8.0 63 +13 +13 972.8
Ю 7
{8}
16 км 8/8 1290 м +16.0 +8.0 59 +15 +15 973.1
Местоположение метеостанции Camdenton Memorial Airport: широта 37.9740 долгота -92.6912 высота над уровнем моря 321 м.
В архиве по умолчанию представлена погода в Камдентоне за последние 1-2 суток. Обновление информации о фактической погоде в базе происходит ежечасно! Архивные данные за месяц целиком и за предыдущие месяцы Вы можете получить, выбрав интересующий диапазон дат из раскрывающегося списка и нажав кнопку "Ввод!".
Внимание! Архив погоды МЕТАР в базе сайта по станциям, не включенным в климатический монитор, хранится не более 60 дней. Нет смысла пытаться выбрать более раннюю дату.
*Определитесь, кто Вы:
Внимание! Время в таблицах - местное (без учета летнего времени). Для получения всемирного времени необходимо вычесть поправку, которая равна -6 ч.
Смотрите также архив погоды в соседних городах и на ближайших метеорологических станциях:
Партнеры нашего сайта:      
Пояснения к столбцам:
  • Ветер - указаны скорость ветра в м/с - средняя за 10 мин, порывы в срок и между сроками (в фигурных скобках) и направление, откуда дует ветер: С - северный,
  • СВ - северо-восточный, В - восточный, ЮВ - юго-восточный, Ю - южный, ЮЗ - юго-западный, З - западный, СЗ - северо-западный.
  • Видимость - горизонтальная дальность видимости в метрах или километрах. При видимости от 1 до 10 км при отсутствии осадков обычно наблюдается дымка, при ухудшении видимости до 1 км и менее - туман. В сухую погоду видимость может ухудшаться дымом, пылью или мглою.
  • Явления - указаны атмосферные явления, наблюдавшиеся в срок или в последний час перед сроком; фигурными скобками обозначены явления, наблюдавшиеся между сроками (за 1-3 часа до срока); квадратными скобками обозначены град или гололедные отложения с указанием их диаметра в мм.
  • Облачность - указаны через наклонную черту общая и нижняя облачность в баллах и высота нижней границы облаков в метрах; квадратными скобками обозначены формы облаков: Ci - перистые, Cs - перисто-слоистые, Cc - перисто-кучевые, Ac - высококучевые, As - высокослоистые, Sc - слоисто-кучевые, Ns - слоисто-дождевые, Cu - кучевые, Cb - кучево-дождевые. Подробнее классификацию облаков см. в Атласе облаков (PDF).
  • T - Температура воздуха - температура, измеренная на высоте 2 м над землей.
  • Td - Температура точки росы - температура, при понижении до которой содержащийся в воздухе водяной пар достигнет насыщения.
  • f - Относительная влажность воздуха - влажноcть воздуха, измеренная на высоте 2 м над землей.
  • Te - Эффективная температура - температура, которую ощущает одетый по сезону человек в тени. Характеристика душности погоды. При расчете учитывается влияние влажности воздуха и скорости ветра на теплоощущения человека.
  • Tes - Эффективная температура на солнце - температура, которую ощущает человек, с поправкой на солнечный нагрев. Характеристика знойности погоды. Зависит от высоты солнца над горизонтом, облачности и скорости ветра. Ночью, в пасмурную погоду, а также при ветре 12 м/с и более поправка равна нулю.
  • P - Атмосферное давление - приведенное к уровню моря атмосферное давление.
  • Po - Атмосферное давление - измеренное на уровне метеостанции атмосферное давление.
  • Tmin - Минимальная температура - минимум температуры воздуха на высоте 2 м над землей.
  • Tmax - Максимальная температура - максимум температуры воздуха на высоте 2 м над землей.
  • R - Количество осадков - Количество выпавших осадков за период времени, мм. При наведении курсора мыши на число - период времени, за который выпало указанное количество осадков.
  • R24 - Количество осадков - Количество выпавших осадков за 24 часа, мм.
  • S - Снежный покров - Высота снежного покрова, см. При наведении курсора мыши на число - состояние снежного покрова и степень покрытия местности в баллах.